Flag for Canada Weather past 2 weeks in Maple Ridge, British Columbia, Canada

Now
38 °F

Chilly.


Feels Like: 35 °F
Forecast: 33 / 41 °F
Wind: 5 mph from Northeast

Location: P. Meadows Coastal Station

Current Time: Dec 27, 2014 at 2:51:28 AM

Latest Report: Dec 27, 2014 at 2:00 AM


Visibility: N/A

Pressure: 30.28 "Hg

Humidity: 97%

Dew point: 37 °F

Location of Maple RidgeLocation

Historic Weather in Maple Ridge — Graph

°F

Maple Ridge temperature yesterday

Maximum temperature yesterday: 40 °F (at 1:00 PM)
Minimum temperature yesterday: 34 °F (at 12:00 AM)
Average temperature yesterday: 37 °F

Past Weeks' High & Low Weather Summary

 TemperatureHumidityPressure
High54 °F (Dec 12, 1:00 PM)100% (Dec 13, 12:00 AM)30.39 "Hg (Dec 13, 12:00 AM)
Low27 °F (Dec 15, 6:00 AM)63% (Dec 15, 2:00 PM)29.32 "Hg (Dec 20, 11:00 PM)
Average41 °F93%29.98 "Hg
* Reported Dec 12 1:00 AM — Dec 27 1:00 AM, Maple Ridge, Weather by CustomWeather, © 2014

Note: Actual official high and low records may vary slightly from our data, if they occured in-between our weather recording intervals... More about our weather records

Advertising

Maple Ridge weather history for previous 24 hours

 ConditionsComfort  
Time TempWeatherWind HumidityBarometerVisibility
1:00 AM
Dec 27
38 °FChilly.2 mph98%30.29 "HgN/A
12:00 AM36 °FChilly.3 mph100%30.31 "HgN/A
11:00 PM
Dec 26
38 °FChilly.2 mph95%30.33 "HgN/A
10:00 PM38 °FChilly.1 mph95%30.34 "HgN/A
9:00 PM38 °FChilly.2 mph94%30.34 "HgN/A
8:00 PM39 °FChilly.1 mph95%30.35 "HgN/A
7:00 PM39 °FChilly.2 mph92%30.34 "HgN/A
6:00 PM39 °FChilly.2 mph92%30.35 "HgN/A
5:00 PM39 °FChilly.1 mph93%30.36 "HgN/A
4:00 PM40 °FChilly.2 mph82%30.36 "HgN/A
3:00 PM38 °FChilly.2 mph87%30.35 "HgN/A
2:00 PM40 °FQuite cool.2 mph84%30.36 "HgN/A
1:00 PM40 °FQuite cool.3 mph85%30.37 "HgN/A
12:00 PM40 °FChilly.3 mph85%30.38 "HgN/A
11:00 AM39 °FChilly.1 mph95%30.38 "HgN/A
10:00 AM38 °FChilly.No wind97%30.39 "HgN/A
9:00 AM37 °FChilly.No wind98%30.37 "HgN/A
8:00 AM36 °FChilly.No wind99%30.35 "HgN/A
7:00 AM36 °FChilly.No wind98%30.35 "HgN/A
6:00 AM36 °FChilly.1 mph100%30.35 "HgN/A
5:00 AM35 °FChilly.No wind100%30.34 "HgN/A
4:00 AM35 °FChilly.2 mph100%30.34 "HgN/A
3:00 AM35 °FChilly.No wind100%30.33 "HgN/A
2:00 AM35 °FChilly.1 mph100%30.32 "HgN/A
Weather by CustomWeather, © 2014

See weather overviewHow to use our weather pages